Observations

BIA Manual Entry


Date Temp Humidity Rainfall Dew Point Wind Direction Wind Speed Wind Pressure Condition Visibility
2025-03-13 00:59:58 25 90 0.00 23 210 5.7 1010 Partly Cloudy (Night) 10KM
2025-03-13 00:26:15 25 88 0.00 23 210 7.6 1010 Partly Cloudy (Night) 10KM
2025-03-12 23:02:43 25 89 0.00 23 260 5.7 1010 Partly Cloudy (Night) 10KM
2025-03-12 21:58:58 25 90 0.00 24 220 7.6 1010 Night Shower 10KN
2025-03-12 20:59:34 26 92 0.00 25 170 9.5 1010 Lightning 10KM
2025-03-12 20:01:18 28 84 0.00 25 050 5.7 1009 Lightning 10KM
2025-03-12 19:00:43 28 81 0.00 25 070 3.8 1008 Thunderstorm 10KM
2025-03-12 17:59:40 29 82 0.00 25 020 5.7 1009 Thunderstorm 10KM
2025-03-12 17:00:45 30 77 25 010 15.2 1007 Thunderstorm 15 KM
2025-03-12 15:58:42 30 77 26 330 19.0 1006 Partly Cloudy (Day) 15 KM
2025-03-12 14:58:38 31 76 26 340 22.8 1006 Partly Cloudy (Day) 15 KM
2025-03-12 13:59:53 32 66 25 360 17.1 1007 Partly Cloudy (Day) 20 KM
2025-03-12 13:00:32 32 69 25 020 17.1 1009 Cloudy 20 KM
2025-03-12 11:59:07 31 71 24 010 11.4 1010 Distant showers 15 KM
2025-03-12 11:00:40 31 69 25 030 15.2 1010 Partly Cloudy (Day) 20 KM
2025-03-12 10:00:53 32 66 0.0 24 090 11.4 1011 Partly Cloudy (Day) 10 KM
2025-03-12 08:58:37 30 72 0.0 24 050 3.0 1010 Partly Cloudy (Day) 60 km
2025-03-12 08:00:38 27 90 26 200 7.6 1009 Light Haze 09 km
2025-03-12 06:59:33 26 96 25 250 1.9 1008 Mist 09 km
2025-03-12 05:58:05 25 97 25 200 1.9 1008 Partly Cloudy (Day) 10 km
2025-03-12 05:00:33 26 96 25 000 0.0 1007 Partly Cloudy (Night) 10 km
2025-03-12 04:03:48 26 95 25 180 3.8 1007 Partly Cloudy (Night) 10 km
2025-03-12 03:00:38 26 94 25 210 3.8 1007 Partly Cloudy (Night) 10 km
2025-03-12 02:00:04 26 94 0 25 160 1.9 1008 Partly Cloudy (Night) 10 KM
2025-03-12 00:59:05 26 94 0 25 150 3.8 1009 Partly Cloudy (Night) 10 KM